HYLAS 2

Last updated on Thu Oct 30 2025 00:02:49 GMT+0000 (Coordinated Universal Time)

1 38741U 12043B 25302.46330689 -.00000247 00000+0 00000+0 0 9996 2 38741 1.8260 83.8840 0003496 162.2218 246.2571 1.00272636 48463
UTC large
Height (km)
Speed (km/s)
/
Latitude / Longitude
Inclination (degrees)
Orbital Period (minutes)
Azimuth
Elevation
Range (km)
Doppler Factor

Next 0 passes for location: London (51.5072 / 0.1276)

Sorry there are no passes over London.